MSTAR KORD-EKVG

Flight info

Callsign MSTAR
Flight time N/A
Altitude 37000
Route RAYNR DCT BRTMN DCT TAAYZ DCT FNT Q824 LETAK Q848 KISUK Q997 BOKLU Q941 AGLUK Q921 NOVID/N0470F390 Q921 IMORI Q910 YBC/M080F390 N857B ENNSO DCT 58N048W 60N039W 61N029W 62N018W
Aircraft R722/M-SDFGHIRWY/L

Departure

Time 2026-05-08 02:07
Airport Chicago O'Hare International Airport (KORD)

Arrival

Time N/A
Airport Vágar Airport (EKVG)
Time Latitude Longitude Altitude Speed Heading
2026-05-08 01:31 41.97754 -87.89328 674 ft 0 kts 70°
2026-05-08 01:55 41.97754 -87.89330 674 ft 2 kts 70°
2026-05-08 01:56 41.97748 -87.89363 670 ft 4 kts 86°
2026-05-08 01:56 41.97751 -87.89397 669 ft 4 kts 112°
2026-05-08 01:56 41.97766 -87.89423 668 ft 4 kts 147°
2026-05-08 01:56 41.97787 -87.89431 670 ft 1 kts 180°
2026-05-08 01:57 41.97788 -87.89431 670 ft 0 kts 180°
2026-05-08 02:01 41.97787 -87.89431 655 ft 2 kts 180°
2026-05-08 02:01 41.97757 -87.89431 674 ft 5 kts 180°
2026-05-08 02:01 41.97713 -87.89431 674 ft 7 kts 180°
2026-05-08 02:02 41.97656 -87.89431 674 ft 9 kts 180°
2026-05-08 02:02 41.97579 -87.89431 674 ft 12 kts 179°
2026-05-08 02:02 41.97491 -87.89429 674 ft 13 kts 179°
2026-05-08 02:02 41.97394 -87.89429 674 ft 14 kts 181°
2026-05-08 02:03 41.97300 -87.89472 674 ft 15 kts 224°
2026-05-08 02:03 41.97247 -87.89588 671 ft 15 kts 243°
2026-05-08 02:03 41.97195 -87.89726 674 ft 21 kts 243°
2026-05-08 02:03 41.97140 -87.89920 674 ft 23 kts 263°
2026-05-08 02:04 41.97137 -87.90137 674 ft 25 kts 269°
2026-05-08 02:04 41.97139 -87.90380 674 ft 27 kts 271°
2026-05-08 02:04 41.97066 -87.90498 671 ft 20 kts 222°
2026-05-08 02:04 41.97042 -87.90681 673 ft 25 kts 269°
2026-05-08 02:05 41.97041 -87.90932 673 ft 27 kts 269°
2026-05-08 02:05 41.97041 -87.91184 674 ft 27 kts 269°
2026-05-08 02:05 41.97040 -87.91433 675 ft 26 kts 270°
2026-05-08 02:05 41.97039 -87.91675 675 ft 26 kts 269°
2026-05-08 02:06 41.97039 -87.91922 675 ft 26 kts 269°
2026-05-08 02:06 41.96977 -87.92076 674 ft 19 kts 189°
2026-05-08 02:06 41.96903 -87.91956 677 ft 23 kts 92°
2026-05-08 02:06 41.96902 -87.91365 673 ft 107 kts 89°
2026-05-08 02:07 41.96917 -87.90047 780 ft 161 kts 90°
2026-05-08 02:07 41.96918 -87.88480 1440 ft 174 kts 91°
2026-05-08 02:07 41.96895 -87.86785 2137 ft 188 kts 92°
2026-05-08 02:07 41.96870 -87.84973 2832 ft 199 kts 91°
2026-05-08 02:08 41.97235 -87.83078 3137 ft 234 kts 52°
2026-05-08 02:08 41.98560 -87.81461 3254 ft 286 kts 22°
2026-05-08 02:08 42.00588 -87.80850 3851 ft 308 kts 355°
2026-05-08 02:08 42.02533 -87.81123 6328 ft 262 kts 348°
2026-05-08 02:09 42.04258 -87.81355 8249 ft 253 kts 349°
2026-05-08 02:09 42.06114 -87.81463 9294 ft 272 kts 353°
2026-05-08 02:09 42.07982 -87.81499 10619 ft 271 kts 352°
2026-05-08 02:09 42.09875 -87.81584 11850 ft 274 kts 350°
2026-05-08 02:10 42.11794 -87.81689 13044 ft 278 kts 350°
2026-05-08 02:10 42.13739 -87.81783 14190 ft 282 kts 350°
2026-05-08 02:10 42.15712 -87.81870 15221 ft 286 kts 349°
2026-05-08 02:10 42.17714 -87.81964 16293 ft 289 kts 349°
2026-05-08 02:11 42.19735 -87.82060 17359 ft 292 kts 349°
2026-05-08 02:11 42.21782 -87.82156 18392 ft 296 kts 349°
2026-05-08 02:11 42.23854 -87.82251 19331 ft 298 kts 349°
2026-05-08 02:11 42.25933 -87.82349 20295 ft 300 kts 348°
2026-05-08 02:12 42.28030 -87.82449 21235 ft 303 kts 348°
2026-05-08 02:12 42.30145 -87.82547 22186 ft 305 kts 348°
2026-05-08 02:12 42.32287 -87.82547 23113 ft 313 kts 353°
2026-05-08 02:12 42.34486 -87.82241 23935 ft 321 kts 356°
2026-05-08 02:13 42.36684 -87.81851 24659 ft 323 kts 355°
2026-05-08 02:13 42.38920 -87.81569 25446 ft 324 kts 354°
2026-05-08 02:13 42.41196 -87.81326 26134 ft 330 kts 354°
2026-05-08 02:13 42.43495 -87.81032 26917 ft 333 kts 354°
2026-05-08 02:14 42.45814 -87.80719 27661 ft 336 kts 353°
2026-05-08 02:14 42.48146 -87.80487 28388 ft 335 kts 349°
2026-05-08 02:14 42.50454 -87.80592 29129 ft 330 kts 343°
2026-05-08 02:14 42.52746 -87.80890 29890 ft 333 kts 343°
2026-05-08 02:15 42.55084 -87.81075 30481 ft 341 kts 346°
2026-05-08 02:15 42.57482 -87.81170 30975 ft 347 kts 346°
2026-05-08 02:15 42.59908 -87.81305 31543 ft 351 kts 345°
2026-05-08 02:15 42.62366 -87.81485 32064 ft 356 kts 345°
2026-05-08 02:16 42.64854 -87.81522 32519 ft 374 kts 355°
2026-05-08 02:16 42.67495 -87.80616 33018 ft 402 kts 10°
2026-05-08 02:16 42.69998 -87.78606 33498 ft 435 kts 29°
2026-05-08 02:16 42.72050 -87.75482 33940 ft 467 kts 49°
2026-05-08 02:17 42.73377 -87.71273 34364 ft 490 kts 68°
2026-05-08 02:17 42.74089 -87.66748 34808 ft 500 kts 78°
2026-05-08 02:17 42.74390 -87.61992 35276 ft 506 kts 84°
2026-05-08 02:17 42.74503 -87.57197 35725 ft 510 kts 85°
2026-05-08 02:18 42.74672 -87.52367 36166 ft 511 kts 81°
2026-05-08 02:18 42.75089 -87.47590 36603 ft 512 kts 78°
2026-05-08 02:18 42.75597 -87.42772 37036 ft 516 kts 79°
2026-05-08 02:18 42.75965 -87.37842 37058 ft 530 kts 83°
2026-05-08 02:19 42.76223 -87.32767 37092 ft 544 kts 83°
2026-05-08 02:19 42.76579 -87.27565 37082 ft 557 kts 80°
2026-05-08 02:19 42.77442 -87.17012 37068 ft 566 kts 82°
2026-05-08 02:20 42.78118 -87.06327 37065 ft 566 kts 81°
2026-05-08 02:20 42.78927 -86.95652 37067 ft 566 kts 82°
2026-05-08 02:21 42.79626 -86.84896 37063 ft 570 kts 82°
2026-05-08 02:21 42.80389 -86.74139 37061 ft 570 kts 82°
2026-05-08 02:22 42.81086 -86.63450 37061 ft 570 kts 82°
2026-05-08 02:22 42.81814 -86.52681 37053 ft 572 kts 82°
2026-05-08 02:23 42.82509 -86.41867 37060 ft 572 kts 82°
2026-05-08 02:23 42.83207 -86.31135 37061 ft 572 kts 82°
2026-05-08 02:24 42.83886 -86.20331 37059 ft 572 kts 82°
2026-05-08 02:24 42.84564 -86.09519 37059 ft 571 kts 82°
2026-05-08 02:25 42.85225 -85.98725 37060 ft 572 kts 82°
2026-05-08 02:25 42.85880 -85.87921 37061 ft 572 kts 83°
2026-05-08 02:26 42.86523 -85.77122 37061 ft 572 kts 83°
2026-05-08 02:26 42.87156 -85.66316 37063 ft 572 kts 83°
2026-05-08 02:27 42.87774 -85.55584 37065 ft 572 kts 83°
2026-05-08 02:27 42.88389 -85.44756 37066 ft 572 kts 83°
2026-05-08 02:28 42.88990 -85.33952 37056 ft 570 kts 83°
2026-05-08 02:28 42.89581 -85.23169 37055 ft 570 kts 83°
2026-05-08 02:29 42.90164 -85.12373 37057 ft 570 kts 83°
2026-05-08 02:29 42.90731 -85.01606 37059 ft 568 kts 83°
2026-05-08 02:30 42.91289 -84.90886 37063 ft 563 kts 83°
2026-05-08 02:30 42.91830 -84.80299 37065 ft 563 kts 83°
2026-05-08 02:31 42.92363 -84.69644 37067 ft 563 kts 84°
2026-05-08 02:31 42.92885 -84.59014 37066 ft 562 kts 84°
2026-05-08 02:32 42.93399 -84.48370 37070 ft 562 kts 84°
2026-05-08 02:32 42.93901 -84.37744 37071 ft 562 kts 84°
2026-05-08 02:33 42.94395 -84.27100 37069 ft 562 kts 84°
2026-05-08 02:33 42.94878 -84.16439 37070 ft 563 kts 84°
2026-05-08 02:34 42.95353 -84.05773 37075 ft 562 kts 84°
2026-05-08 02:34 42.95817 -83.95094 37073 ft 562 kts 85°
2026-05-08 02:35 42.96270 -83.84488 37068 ft 564 kts 85°
2026-05-08 02:35 42.97143 -83.73888 37064 ft 559 kts 72°
2026-05-08 02:36 42.99676 -83.63906 37075 ft 555 kts 63°
2026-05-08 02:36 43.02234 -83.55851 37071 ft 555 kts 64°
2026-05-08 02:37 43.04935 -83.45934 37063 ft 555 kts 66°
2026-05-08 02:37 43.07833 -83.36185 37058 ft 553 kts 64°
2026-05-08 02:38 43.10586 -83.26343 37051 ft 554 kts 66°
2026-05-08 02:38 43.13416 -83.16529 37066 ft 553 kts 65°
2026-05-08 02:39 43.16176 -83.06732 37061 ft 555 kts 66°
2026-05-08 02:39 43.18967 -82.96883 37046 ft 554 kts 65°
2026-05-08 02:40 43.21734 -82.87037 37060 ft 553 kts 66°
2026-05-08 02:40 43.24495 -82.77196 37057 ft 553 kts 65°
2026-05-08 02:41 43.27489 -82.67478 37067 ft 550 kts 59°
2026-05-08 02:41 43.31294 -82.58490 37069 ft 547 kts 54°
2026-05-08 02:42 43.35017 -82.49252 37074 ft 550 kts 59°
2026-05-08 02:42 43.38673 -82.40043 37097 ft 546 kts 56°
2026-05-08 02:43 43.42344 -82.30984 37073 ft 546 kts 58°
2026-05-08 02:43 43.45958 -82.21798 37075 ft 545 kts 57°
2026-05-08 02:44 43.49651 -82.12683 37076 ft 545 kts 57°
2026-05-08 02:44 43.53414 -82.03620 37076 ft 545 kts 56°
2026-05-08 02:45 43.57145 -81.94549 37078 ft 542 kts 57°
2026-05-08 02:45 43.60860 -81.85503 37078 ft 542 kts 57°
2026-05-08 02:46 43.64576 -81.76429 37075 ft 542 kts 57°
2026-05-08 02:46 43.68275 -81.67362 37074 ft 542 kts 57°
2026-05-08 02:47 43.71987 -81.58239 37095 ft 545 kts 57°
2026-05-08 02:47 43.75656 -81.49105 37078 ft 544 kts 58°
2026-05-08 02:48 43.79291 -81.39911 37081 ft 544 kts 58°
2026-05-08 02:48 43.82938 -81.30738 37086 ft 544 kts 58°
2026-05-08 02:49 43.86571 -81.21520 37082 ft 546 kts 58°
2026-05-08 02:49 43.90181 -81.12354 37078 ft 543 kts 58°
2026-05-08 02:50 43.93788 -81.03156 37079 ft 543 kts 58°
2026-05-08 02:50 43.97392 -80.93941 37081 ft 543 kts 58°
2026-05-08 02:51 44.00996 -80.84693 37085 ft 544 kts 58°
2026-05-08 02:51 44.04568 -80.75503 37085 ft 544 kts 58°
2026-05-08 02:52 44.08146 -80.66257 37072 ft 542 kts 59°
2026-05-08 02:52 44.11713 -80.57017 37070 ft 542 kts 59°
2026-05-08 02:53 44.15279 -80.47744 37075 ft 544 kts 59°
2026-05-08 02:53 44.18846 -80.38443 37073 ft 544 kts 59°
2026-05-08 02:54 44.22399 -80.29143 37070 ft 541 kts 59°
2026-05-08 02:54 44.25931 -80.19870 37071 ft 541 kts 59°
2026-05-08 02:55 44.31205 -80.05963 37072 ft 543 kts 59°
2026-05-08 02:56 44.34728 -79.96633 37075 ft 543 kts 59°
2026-05-08 02:56 44.38247 -79.87287 37076 ft 543 kts 59°
2026-05-08 02:57 44.41718 -79.78036 37068 ft 544 kts 59°
2026-05-08 02:57 44.45229 -79.68645 37067 ft 544 kts 60°
2026-05-08 02:58 44.48728 -79.59251 37068 ft 544 kts 60°
2026-05-08 02:58 44.52219 -79.49853 37061 ft 543 kts 60°
2026-05-08 02:59 44.55693 -79.40468 37054 ft 543 kts 60°
2026-05-08 02:59 44.59174 -79.31029 37053 ft 544 kts 60°
2026-05-08 03:00 44.62638 -79.21607 37051 ft 544 kts 60°
2026-05-08 03:00 44.66105 -79.12137 37047 ft 544 kts 60°
2026-05-08 03:01 44.69531 -79.02759 37055 ft 542 kts 60°
2026-05-08 03:01 44.72964 -78.93317 37052 ft 543 kts 60°
2026-05-08 03:02 44.76403 -78.83835 37053 ft 543 kts 61°
2026-05-08 03:02 44.79465 -78.74106 37054 ft 545 kts 69°
2026-05-08 03:03 44.81805 -78.63918 37065 ft 545 kts 70°
2026-05-08 03:03 44.84509 -78.53961 37051 ft 543 kts 67°
2026-05-08 03:04 44.86992 -78.43877 37039 ft 545 kts 70°
2026-05-08 03:04 44.89569 -78.33926 37034 ft 545 kts 68°
2026-05-08 03:05 44.92099 -78.23832 37035 ft 545 kts 70°
2026-05-08 03:05 44.94647 -78.13756 37038 ft 545 kts 69°
2026-05-08 03:06 44.97170 -78.03689 37028 ft 543 kts 70°
2026-05-08 03:06 44.99668 -77.93675 37023 ft 543 kts 69°
2026-05-08 03:07 45.02188 -77.83546 37029 ft 543 kts 69°
2026-05-08 03:07 45.04668 -77.73517 37028 ft 543 kts 69°
2026-05-08 03:08 45.07158 -77.63419 37020 ft 544 kts 70°
2026-05-08 03:08 45.09642 -77.53291 37034 ft 544 kts 70°
2026-05-08 03:09 45.12110 -77.43185 37026 ft 543 kts 70°
2026-05-08 03:09 45.14572 -77.33058 37028 ft 543 kts 70°
2026-05-08 03:10 45.17023 -77.22929 37029 ft 543 kts 70°
2026-05-08 03:10 45.19469 -77.12778 37021 ft 544 kts 70°
2026-05-08 03:11 45.21889 -77.02688 37023 ft 544 kts 70°
2026-05-08 03:11 45.24317 -76.92520 37021 ft 542 kts 70°
2026-05-08 03:12 45.26728 -76.82376 37023 ft 542 kts 70°
2026-05-08 03:12 45.29131 -76.72216 37006 ft 544 kts 71°
2026-05-08 03:13 45.31533 -76.62020 37007 ft 544 kts 71°
2026-05-08 03:13 45.33924 -76.51811 37005 ft 544 kts 71°
2026-05-08 03:14 45.36306 -76.41607 37017 ft 543 kts 71°
2026-05-08 03:14 45.38671 -76.31414 36988 ft 543 kts 71°
2026-05-08 03:15 45.41322 -76.21434 36992 ft 543 kts 63°
2026-05-08 03:15 45.44982 -76.12051 37001 ft 542 kts 58°
2026-05-08 03:16 45.48576 -76.02582 36993 ft 543 kts 63°
2026-05-08 03:16 45.52106 -75.93085 36997 ft 542 kts 59°
2026-05-08 03:17 45.55701 -75.83628 36993 ft 542 kts 62°
2026-05-08 03:17 45.59221 -75.74081 36979 ft 543 kts 60°
2026-05-08 03:18 45.62796 -75.64585 36977 ft 543 kts 61°
2026-05-08 03:18 45.66313 -75.55019 36979 ft 542 kts 61°
2026-05-08 03:19 45.69857 -75.45500 36983 ft 542 kts 61°
2026-05-08 03:19 45.73359 -75.35942 36981 ft 542 kts 61°
2026-05-08 03:20 45.76863 -75.26435 36969 ft 544 kts 62°
2026-05-08 03:20 45.80372 -75.16816 36970 ft 544 kts 62°
2026-05-08 03:21 45.83880 -75.07210 36978 ft 544 kts 62°
2026-05-08 03:21 45.87061 -74.97369 36974 ft 545 kts 73°
2026-05-08 03:22 45.88094 -74.86682 36986 ft 542 kts 94°
2026-05-08 03:22 45.86940 -74.76037 36980 ft 539 kts 106°
2026-05-08 03:23 45.85267 -74.65549 36978 ft 542 kts 97°
2026-05-08 03:23 45.85208 -74.60131 36975 ft 545 kts 86°
2026-05-08 03:23 45.85524 -74.56562 36983 ft 546 kts 80°
2026-05-08 03:24 45.87871 -74.46217 36990 ft 546 kts 66°
2026-05-08 03:24 45.91141 -74.36343 36978 ft 547 kts 64°
2026-05-08 03:25 45.94118 -74.26273 36979 ft 547 kts 68°
2026-05-08 03:25 45.97220 -74.16283 36994 ft 547 kts 65°
2026-05-08 03:26 46.00250 -74.06234 36976 ft 547 kts 67°
2026-05-08 03:26 46.03280 -73.96235 36978 ft 547 kts 65°
2026-05-08 03:27 46.06322 -73.86159 36979 ft 548 kts 67°
2026-05-08 03:27 46.09337 -73.76072 36982 ft 548 kts 66°
2026-05-08 03:28 46.12347 -73.66027 36980 ft 548 kts 67°
2026-05-08 03:28 46.15347 -73.55922 36990 ft 548 kts 66°
2026-05-08 03:29 46.18350 -73.45805 36990 ft 547 kts 67°
2026-05-08 03:29 46.21328 -73.35700 36976 ft 547 kts 67°
2026-05-08 03:30 46.25728 -73.20495 36970 ft 547 kts 67°
2026-05-08 03:31 46.31561 -73.00252 36964 ft 547 kts 68°
2026-05-08 03:32 46.35927 -72.84992 36945 ft 548 kts 68°
2026-05-08 03:32 46.38871 -72.74819 36946 ft 548 kts 67°
2026-05-08 03:33 46.41813 -72.64623 36954 ft 548 kts 68°
2026-05-08 03:33 46.44740 -72.54420 36955 ft 548 kts 68°
2026-05-08 03:34 46.47655 -72.44225 36948 ft 547 kts 68°
2026-05-08 03:34 46.50571 -72.33975 36941 ft 550 kts 68°
2026-05-08 03:35 46.53486 -72.23698 36930 ft 550 kts 68°
2026-05-08 03:35 46.56384 -72.13426 36930 ft 550 kts 68°
2026-05-08 03:36 46.59252 -72.03211 36945 ft 548 kts 68°
2026-05-08 03:36 46.62123 -71.92952 36931 ft 548 kts 68°
2026-05-08 03:37 46.64992 -71.82645 36919 ft 551 kts 69°
2026-05-08 03:37 46.67859 -71.72310 36912 ft 551 kts 69°
2026-05-08 03:38 46.71119 -71.62229 36916 ft 551 kts 56°
2026-05-08 03:38 46.75903 -71.53531 36918 ft 548 kts 46°
2026-05-08 03:39 46.81203 -71.45639 36916 ft 547 kts 42°
2026-05-08 03:39 46.86928 -71.38315 36910 ft 546 kts 39°
2026-05-08 03:40 46.92506 -71.30750 36904 ft 547 kts 42°
2026-05-08 03:40 46.98160 -71.23277 36905 ft 549 kts 40°
2026-05-08 03:41 47.03801 -71.15708 36898 ft 550 kts 41°
2026-05-08 03:41 47.09449 -71.08116 36892 ft 548 kts 40°
2026-05-08 03:42 47.14887 -71.00271 36891 ft 549 kts 45°
2026-05-08 03:42 47.20210 -70.92347 36892 ft 548 kts 42°
2026-05-08 03:43 47.25640 -70.84490 36885 ft 548 kts 44°
2026-05-08 03:43 47.30997 -70.76486 36873 ft 548 kts 43°
2026-05-08 03:44 47.36415 -70.68560 36879 ft 548 kts 44°
2026-05-08 03:44 47.41768 -70.60557 36888 ft 548 kts 44°
2026-05-08 03:45 47.47146 -70.52601 36871 ft 547 kts 44°
2026-05-08 03:45 47.52583 -70.44711 36874 ft 546 kts 40°
2026-05-08 03:46 47.58375 -70.37414 36861 ft 549 kts 40°
2026-05-08 03:46 47.63940 -70.29747 36872 ft 549 kts 41°
2026-05-08 03:47 47.69674 -70.22260 36869 ft 548 kts 40°
2026-05-08 03:47 47.75311 -70.14608 36869 ft 549 kts 41°
2026-05-08 03:48 47.80994 -70.07038 36865 ft 547 kts 40°
2026-05-08 03:48 47.86632 -69.99405 36857 ft 548 kts 41°
2026-05-08 03:49 47.92247 -69.91838 36851 ft 547 kts 40°
2026-05-08 03:49 47.97883 -69.84189 36853 ft 547 kts 41°
2026-05-08 03:50 48.03513 -69.76539 36853 ft 546 kts 41°
2026-05-08 03:50 48.09133 -69.68870 36853 ft 546 kts 41°
2026-05-08 03:51 48.14740 -69.61202 36850 ft 546 kts 41°
2026-05-08 03:51 48.20338 -69.53515 36846 ft 546 kts 41°
2026-05-08 03:52 48.25934 -69.45816 36844 ft 546 kts 41°
2026-05-08 03:52 48.31499 -69.38128 36838 ft 548 kts 41°
2026-05-08 03:53 48.37104 -69.30367 36846 ft 547 kts 41°
2026-05-08 03:53 48.42702 -69.22586 36844 ft 547 kts 41°
2026-05-08 03:54 48.48292 -69.14794 36843 ft 547 kts 42°
2026-05-08 03:54 48.53877 -69.06986 36831 ft 546 kts 42°
2026-05-08 03:55 48.59444 -68.99177 36836 ft 546 kts 42°
2026-05-08 03:55 48.65006 -68.91348 36834 ft 546 kts 42°
2026-05-08 03:56 48.70563 -68.83506 36834 ft 546 kts 43°
2026-05-08 03:56 48.76118 -68.75638 36831 ft 546 kts 43°
2026-05-08 03:57 48.81639 -68.67794 36832 ft 546 kts 43°
2026-05-08 03:57 48.87181 -68.59899 36837 ft 545 kts 43°
2026-05-08 03:58 48.92698 -68.52009 36831 ft 545 kts 43°
2026-05-08 03:58 48.98220 -68.44090 36833 ft 545 kts 43°
2026-05-08 03:59 49.03734 -68.36157 36808 ft 547 kts 43°
2026-05-08 03:59 49.09284 -68.28145 36812 ft 549 kts 43°
2026-05-08 04:00 49.14793 -68.20177 36809 ft 549 kts 43°
2026-05-08 04:00 49.20442 -68.12289 36809 ft 549 kts 42°
2026-05-08 04:01 49.26028 -68.04339 36826 ft 547 kts 43°
2026-05-08 04:01 49.31630 -67.96413 36823 ft 547 kts 42°
2026-05-08 04:02 49.37213 -67.88446 36820 ft 548 kts 43°
2026-05-08 04:02 49.42792 -67.80484 36818 ft 547 kts 43°
2026-05-08 04:03 49.48318 -67.72558 36821 ft 547 kts 43°
2026-05-08 04:03 49.56649 -67.60575 36817 ft 547 kts 43°
2026-05-08 04:04 49.62196 -67.52550 36817 ft 547 kts 43°
2026-05-08 04:04 49.67746 -67.44511 36804 ft 547 kts 43°
2026-05-08 04:05 49.73280 -67.36453 36804 ft 547 kts 43°
2026-05-08 04:05 49.78820 -67.28374 36806 ft 547 kts 43°
2026-05-08 04:06 49.84360 -67.20257 36790 ft 549 kts 43°
2026-05-08 04:06 49.89873 -67.12162 36787 ft 549 kts 43°
2026-05-08 04:07 49.95410 -67.03998 36788 ft 549 kts 44°
2026-05-08 04:07 50.00949 -66.95807 36783 ft 549 kts 44°
2026-05-08 04:08 50.06476 -66.87605 36781 ft 549 kts 44°
2026-05-08 04:08 50.11995 -66.79388 36781 ft 549 kts 44°
2026-05-08 04:09 50.17504 -66.71156 36779 ft 549 kts 44°
2026-05-08 04:09 50.23019 -66.62892 36780 ft 549 kts 44°
2026-05-08 04:10 50.28494 -66.54657 36758 ft 549 kts 44°
2026-05-08 04:10 50.33984 -66.46373 36755 ft 549 kts 44°
2026-05-08 04:11 50.38556 -66.39451 36751 ft 548 kts 44°
2026-05-08 04:11 50.44963 -66.29720 36760 ft 548 kts 44°
2026-05-08 04:12 50.49512 -66.22786 36767 ft 548 kts 44°
2026-05-08 04:12 50.54967 -66.14448 36772 ft 546 kts 45°
2026-05-08 04:13 50.60406 -66.06104 36779 ft 546 kts 45°
2026-05-08 04:13 50.65851 -65.97720 36775 ft 548 kts 45°
2026-05-08 04:14 50.71307 -65.89297 36772 ft 548 kts 45°
2026-05-08 04:14 50.76708 -65.80924 36772 ft 547 kts 45°
2026-05-08 04:15 50.82133 -65.72487 36772 ft 547 kts 45°
2026-05-08 04:15 50.87559 -65.64016 36774 ft 547 kts 45°
2026-05-08 04:16 50.92975 -65.55536 36774 ft 547 kts 45°
2026-05-08 04:16 50.98388 -65.47031 36772 ft 547 kts 45°
2026-05-08 04:17 51.03796 -65.38501 36775 ft 547 kts 45°
2026-05-08 04:17 51.09189 -65.29972 36769 ft 547 kts 46°
2026-05-08 04:18 51.14579 -65.21406 36772 ft 546 kts 46°
2026-05-08 04:18 51.19960 -65.12838 36768 ft 547 kts 46°
2026-05-08 04:19 51.25295 -65.04303 36763 ft 546 kts 46°
2026-05-08 04:19 51.30664 -64.95690 36766 ft 548 kts 46°
2026-05-08 04:20 51.36036 -64.87038 36762 ft 547 kts 46°
2026-05-08 04:20 51.41399 -64.78370 36763 ft 547 kts 47°
2026-05-08 04:21 51.46752 -64.69689 36768 ft 547 kts 47°
2026-05-08 04:21 51.52097 -64.60992 36768 ft 547 kts 47°
2026-05-08 04:22 51.54763 -64.56638 36663 ft 547 kts 47°
2026-05-08 04:22 51.57431 -64.52280 36657 ft 547 kts 47°
2026-05-08 04:22 51.62763 -64.43539 36651 ft 547 kts 47°
2026-05-08 04:23 51.68091 -64.34777 36643 ft 546 kts 47°
2026-05-08 04:23 51.73365 -64.26067 36639 ft 546 kts 47°
2026-05-08 04:24 51.78671 -64.17278 36638 ft 546 kts 47°
2026-05-08 04:24 51.81271 -64.12960 36641 ft 524 kts 47°
2026-05-08 04:24 51.83763 -64.08818 36625 ft 508 kts 47°
2026-05-08 04:25 51.88702 -64.00563 36621 ft 512 kts 48°
2026-05-08 04:25 51.93664 -63.92270 36619 ft 513 kts 48°
2026-05-08 04:26 51.98614 -63.83949 36623 ft 513 kts 48°
2026-05-08 04:26 52.03568 -63.75603 36614 ft 513 kts 48°
2026-05-08 04:27 52.08494 -63.67270 36613 ft 511 kts 48°
2026-05-08 04:27 52.13413 -63.58924 36613 ft 511 kts 48°
2026-05-08 04:28 52.18295 -63.50613 36608 ft 511 kts 48°
2026-05-08 04:28 52.23201 -63.42231 36603 ft 511 kts 49°
2026-05-08 04:29 52.28130 -63.33779 36612 ft 514 kts 49°
2026-05-08 04:29 52.33057 -63.25308 36607 ft 514 kts 49°
2026-05-08 04:30 52.37965 -63.16833 36600 ft 514 kts 49°
2026-05-08 04:30 52.42882 -63.08318 36590 ft 514 kts 49°
2026-05-08 04:31 52.47763 -62.99836 36586 ft 503 kts 49°
2026-05-08 04:31 52.52576 -62.91435 36577 ft 506 kts 50°
2026-05-08 04:32 52.57397 -62.83003 36875 ft 507 kts 50°
2026-05-08 04:32 52.59811 -62.78764 37241 ft 507 kts 50°
2026-05-08 04:32 52.62220 -62.74530 37796 ft 506 kts 50°
2026-05-08 04:33 52.64590 -62.70358 38358 ft 505 kts 50°
2026-05-08 04:33 52.67004 -62.66097 38552 ft 512 kts 50°
2026-05-08 04:33 52.69459 -62.61756 38559 ft 523 kts 50°
2026-05-08 04:33 52.71951 -62.57349 38574 ft 525 kts 50°
2026-05-08 04:34 52.76926 -62.48524 38566 ft 525 kts 50°
2026-05-08 04:34 52.81884 -62.39691 38568 ft 517 kts 50°
2026-05-08 04:35 52.86982 -62.30575 38547 ft 515 kts 50°
2026-05-08 04:35 52.91848 -62.21846 38542 ft 516 kts 50°
2026-05-08 04:36 52.96711 -62.13087 38545 ft 516 kts 50°
2026-05-08 04:36 53.01552 -62.04342 38536 ft 513 kts 50°
2026-05-08 04:37 53.06341 -61.95654 38535 ft 515 kts 50°
2026-05-08 04:37 53.11182 -61.86846 38538 ft 515 kts 50°
2026-05-08 04:38 53.16028 -61.77993 38530 ft 515 kts 50°
2026-05-08 04:38 53.20848 -61.69157 38519 ft 515 kts 51°
2026-05-08 04:39 53.25663 -61.60299 38516 ft 515 kts 51°
2026-05-08 04:39 53.30442 -61.51473 38507 ft 515 kts 51°
2026-05-08 04:40 53.35216 -61.42632 38509 ft 504 kts 51°
2026-05-08 04:40 53.39910 -61.33892 38503 ft 506 kts 51°
2026-05-08 04:41 53.44624 -61.25100 38493 ft 506 kts 51°
2026-05-08 04:41 53.49307 -61.16325 38495 ft 506 kts 51°
2026-05-08 04:42 53.54002 -61.07500 38487 ft 506 kts 51°
2026-05-08 04:42 53.58682 -60.98672 38480 ft 505 kts 51°
2026-05-08 04:43 53.63300 -60.89925 38479 ft 505 kts 51°
2026-05-08 04:43 53.67978 -60.81039 38476 ft 505 kts 52°
2026-05-08 04:44 53.72626 -60.72172 38476 ft 505 kts 52°
2026-05-08 04:44 53.77270 -60.63285 38472 ft 504 kts 52°
2026-05-08 04:45 53.81129 -60.55871 38468 ft 504 kts 52°
2026-05-08 04:45 53.86540 -60.45443 38432 ft 504 kts 52°
2026-05-08 04:46 53.91178 -60.36468 38464 ft 506 kts 52°
2026-05-08 04:46 53.95024 -60.29004 38461 ft 505 kts 52°
2026-05-08 04:47 53.99640 -60.20007 38458 ft 505 kts 52°
2026-05-08 04:47 54.04253 -60.10989 38455 ft 505 kts 53°
2026-05-08 04:48 54.08857 -60.01951 38456 ft 505 kts 53°
2026-05-08 04:48 54.13421 -59.92967 38447 ft 504 kts 53°
2026-05-08 04:49 54.17997 -59.83912 38449 ft 504 kts 53°
2026-05-08 04:49 54.22582 -59.74820 38447 ft 504 kts 53°
2026-05-08 04:50 54.27148 -59.65721 38441 ft 504 kts 53°
2026-05-08 04:50 54.31713 -59.56595 38441 ft 506 kts 53°
2026-05-08 04:51 54.36255 -59.47483 38437 ft 506 kts 53°
2026-05-08 04:51 54.40812 -59.38307 38436 ft 505 kts 53°
2026-05-08 04:52 54.45366 -59.29096 38439 ft 505 kts 53°
2026-05-08 04:52 54.49912 -59.19875 38436 ft 503 kts 54°
2026-05-08 04:53 54.54424 -59.10678 38435 ft 503 kts 54°
2026-05-08 04:53 54.58937 -59.01456 38433 ft 503 kts 54°
2026-05-08 04:54 54.63445 -58.92198 38433 ft 503 kts 54°
2026-05-08 04:54 54.67922 -58.82980 38414 ft 503 kts 54°
2026-05-08 04:55 54.72414 -58.73686 38431 ft 504 kts 54°
2026-05-08 04:55 54.76908 -58.64363 38436 ft 504 kts 54°
2026-05-08 04:56 54.81389 -58.55021 38437 ft 504 kts 54°
2026-05-08 04:56 54.85868 -58.45653 38434 ft 503 kts 54°
2026-05-08 04:57 54.90312 -58.36320 38438 ft 502 kts 55°
2026-05-08 04:57 54.94765 -58.26936 38434 ft 502 kts 55°
2026-05-08 04:58 54.99204 -58.17542 38438 ft 503 kts 55°
2026-05-08 04:58 55.03645 -58.08113 38434 ft 502 kts 55°
2026-05-08 04:59 55.08078 -57.98655 38439 ft 504 kts 55°
2026-05-08 04:59 55.12512 -57.89167 38440 ft 504 kts 55°
2026-05-08 05:00 55.16911 -57.79717 38450 ft 504 kts 55°
2026-05-08 05:00 55.21327 -57.70184 38451 ft 504 kts 55°
2026-05-08 05:01 55.25726 -57.60662 38454 ft 503 kts 55°
2026-05-08 05:01 55.30125 -57.51093 38453 ft 503 kts 55°
2026-05-08 05:02 55.34509 -57.41526 38459 ft 503 kts 56°
2026-05-08 05:02 55.38887 -57.31933 38462 ft 503 kts 56°
2026-05-08 05:03 55.43253 -57.22331 38465 ft 500 kts 56°
2026-05-08 05:03 55.47599 -57.12727 38437 ft 501 kts 56°
2026-05-08 05:04 55.51940 -57.03104 38479 ft 501 kts 56°
2026-05-08 05:04 55.55820 -56.93064 38488 ft 495 kts 66°
2026-05-08 05:05 55.59048 -56.82346 38475 ft 495 kts 65°
2026-05-08 05:05 55.62601 -56.71990 38490 ft 491 kts 64°
2026-05-08 05:06 55.65936 -56.61469 38496 ft 490 kts 65°
2026-05-08 05:06 55.69387 -56.51002 38509 ft 491 kts 65°
2026-05-08 05:07 55.72757 -56.40482 38522 ft 491 kts 65°
2026-05-08 05:07 55.76151 -56.29987 38527 ft 485 kts 65°
2026-05-08 05:08 55.79464 -56.19610 38525 ft 484 kts 66°
2026-05-08 05:08 55.82799 -56.09177 38539 ft 485 kts 65°
2026-05-08 05:09 55.86110 -55.98737 38541 ft 484 kts 66°
2026-05-08 05:09 55.89417 -55.88288 38544 ft 484 kts 66°
2026-05-08 05:10 55.94347 -55.72605 38547 ft 485 kts 66°
2026-05-08 05:11 55.97636 -55.62087 38562 ft 485 kts 66°
2026-05-08 05:11 56.00916 -55.51555 38574 ft 485 kts 66°
2026-05-08 05:12 56.04181 -55.41020 38576 ft 485 kts 66°
2026-05-08 05:12 56.07449 -55.30431 38569 ft 483 kts 66°
2026-05-08 05:13 56.10687 -55.19891 38594 ft 483 kts 66°
2026-05-08 05:13 56.13918 -55.09326 38593 ft 483 kts 66°
2026-05-08 05:14 56.17124 -54.98799 38616 ft 483 kts 66°
2026-05-08 05:14 56.20341 -54.88185 38617 ft 483 kts 66°
2026-05-08 05:15 56.23541 -54.77581 38623 ft 482 kts 66°
2026-05-08 05:15 56.26731 -54.66962 38621 ft 483 kts 67°
2026-05-08 05:16 56.29915 -54.56315 38606 ft 483 kts 66°
2026-05-08 05:16 56.33102 -54.45607 38645 ft 486 kts 66°
2026-05-08 05:17 56.36283 -54.34876 38652 ft 485 kts 66°
2026-05-08 05:17 56.39455 -54.24121 38651 ft 485 kts 67°
2026-05-08 05:18 56.42599 -54.13412 38665 ft 485 kts 67°
2026-05-08 05:18 56.45757 -54.02609 38676 ft 485 kts 67°
2026-05-08 05:19 56.48901 -53.91804 38677 ft 485 kts 67°
2026-05-08 05:19 56.52035 -53.80978 38677 ft 485 kts 67°
2026-05-08 05:20 56.55150 -53.70169 38684 ft 484 kts 67°
2026-05-08 05:20 56.58260 -53.59332 38684 ft 484 kts 67°
2026-05-08 05:21 56.61334 -53.48567 38703 ft 484 kts 67°
2026-05-08 05:21 56.64423 -53.37696 38703 ft 484 kts 67°
2026-05-08 05:22 56.67500 -53.26817 38709 ft 484 kts 68°
2026-05-08 05:22 56.70581 -53.15872 38705 ft 489 kts 67°
2026-05-08 05:23 56.73665 -53.04878 38723 ft 487 kts 67°
2026-05-08 05:23 56.76716 -52.93927 38737 ft 487 kts 67°
2026-05-08 05:24 56.79774 -52.82909 38741 ft 487 kts 67°
2026-05-08 05:24 56.82824 -52.71870 38742 ft 487 kts 67°
2026-05-08 05:25 56.85861 -52.60822 38736 ft 486 kts 67°
2026-05-08 05:25 56.88884 -52.49769 38737 ft 486 kts 68°
2026-05-08 05:26 56.91897 -52.38702 38765 ft 486 kts 68°
2026-05-08 05:26 56.94905 -52.27602 38782 ft 486 kts 68°
2026-05-08 05:27 56.97902 -52.16486 38771 ft 486 kts 68°
2026-05-08 05:27 57.00879 -52.05387 38785 ft 485 kts 68°
2026-05-08 05:28 57.03832 -51.94322 38784 ft 485 kts 68°
2026-05-08 05:28 57.06789 -51.83194 38785 ft 484 kts 68°
2026-05-08 05:29 57.09738 -51.72036 38797 ft 485 kts 68°
2026-05-08 05:29 57.12657 -51.60937 38796 ft 485 kts 68°
2026-05-08 05:30 57.15584 -51.49760 38804 ft 485 kts 68°
2026-05-08 05:30 57.18498 -51.38564 38816 ft 484 kts 68°
2026-05-08 05:31 57.21403 -51.27355 38816 ft 484 kts 68°
2026-05-08 05:31 57.24302 -51.16116 38825 ft 484 kts 68°
2026-05-08 05:32 57.27187 -51.04868 38813 ft 484 kts 68°
2026-05-08 05:32 57.29582 -50.95493 38824 ft 484 kts 68°
2026-05-08 05:33 57.32448 -50.84212 38831 ft 484 kts 68°
2026-05-08 05:33 57.35305 -50.72915 38856 ft 484 kts 68°
2026-05-08 05:34 57.38151 -50.61601 38858 ft 484 kts 68°
2026-05-08 05:34 57.40987 -50.50277 38862 ft 484 kts 68°
2026-05-08 05:35 57.43813 -50.38925 38865 ft 485 kts 68°
2026-05-08 05:35 57.46631 -50.27549 38878 ft 485 kts 68°
2026-05-08 05:36 57.49442 -50.16142 38884 ft 485 kts 68°
2026-05-08 05:36 57.52243 -50.04721 38893 ft 485 kts 68°
2026-05-08 05:37 57.55033 -49.93284 38887 ft 485 kts 68°
2026-05-08 05:37 57.57787 -49.81931 38897 ft 484 kts 68°
2026-05-08 05:38 57.60551 -49.70482 38902 ft 484 kts 68°
2026-05-08 05:38 57.63303 -49.59015 38914 ft 484 kts 68°
2026-05-08 05:39 57.66048 -49.47521 38920 ft 484 kts 69°
2026-05-08 05:39 57.68782 -49.36016 38917 ft 484 kts 68°
2026-05-08 05:40 57.71504 -49.24491 38926 ft 485 kts 68°
2026-05-08 05:40 57.74205 -49.12998 38942 ft 485 kts 68°
2026-05-08 05:41 57.76887 -49.01526 38947 ft 484 kts 68°
2026-05-08 05:41 57.79606 -48.89840 38950 ft 485 kts 68°
2026-05-08 05:42 57.82289 -48.78231 38947 ft 485 kts 68°
2026-05-08 05:42 57.84960 -48.66615 38958 ft 485 kts 68°
2026-05-08 05:43 57.87628 -48.54956 38960 ft 485 kts 69°
2026-05-08 05:43 57.90278 -48.43307 38967 ft 485 kts 69°
2026-05-08 05:44 57.92922 -48.31618 38964 ft 485 kts 69°
2026-05-08 05:44 57.95536 -48.19999 38978 ft 485 kts 68°
2026-05-08 05:45 57.98162 -48.08271 38976 ft 486 kts 68°
2026-05-08 05:45 58.00821 -47.96615 38986 ft 486 kts 65°
2026-05-08 05:46 58.04021 -47.85364 38988 ft 486 kts 62°
2026-05-08 05:46 58.07013 -47.73962 39007 ft 486 kts 65°
2026-05-08 05:47 58.10101 -47.62583 39002 ft 487 kts 63°
2026-05-08 05:47 58.13146 -47.51104 39016 ft 491 kts 64°
2026-05-08 05:48 58.16216 -47.39552 38998 ft 490 kts 63°
2026-05-08 05:48 58.19265 -47.28000 39005 ft 490 kts 63°
2026-05-08 05:49 58.22300 -47.16443 39007 ft 490 kts 63°
2026-05-08 05:49 58.25330 -47.04840 39031 ft 494 kts 63°
2026-05-08 05:50 58.28377 -46.93124 39036 ft 494 kts 63°
2026-05-08 05:50 58.31407 -46.81397 39045 ft 494 kts 63°
2026-05-08 05:51 58.34425 -46.69669 39042 ft 494 kts 64°
2026-05-08 05:51 58.37439 -46.57884 39048 ft 494 kts 64°
2026-05-08 05:52 58.40441 -46.46086 39052 ft 496 kts 63°
2026-05-08 05:52 58.43441 -46.34238 39071 ft 496 kts 64°
2026-05-08 05:53 58.46428 -46.22374 39067 ft 496 kts 64°
2026-05-08 05:53 58.49382 -46.10574 39077 ft 496 kts 64°
2026-05-08 05:54 58.52351 -45.98655 39076 ft 496 kts 64°
2026-05-08 05:54 58.55301 -45.86743 39082 ft 492 kts 63°
2026-05-08 05:55 58.58230 -45.74861 39081 ft 493 kts 63°
2026-05-08 05:55 58.61151 -45.62944 39087 ft 493 kts 64°
2026-05-08 05:56 58.64038 -45.51093 39086 ft 489 kts 63°
2026-05-08 05:56 58.66910 -45.39251 39093 ft 490 kts 63°
2026-05-08 05:57 58.69762 -45.27417 39098 ft 486 kts 63°
2026-05-08 05:57 58.72595 -45.15607 39103 ft 486 kts 63°
2026-05-08 05:58 58.75422 -45.03755 39113 ft 486 kts 63°
2026-05-08 05:58 58.78211 -44.91988 39114 ft 486 kts 63°
2026-05-08 05:59 58.81014 -44.80111 39140 ft 486 kts 64°
2026-05-08 05:59 58.83787 -44.68288 39133 ft 483 kts 64°
2026-05-08 06:00 58.86546 -44.56466 39141 ft 484 kts 64°
2026-05-08 06:00 58.89303 -44.44583 39143 ft 484 kts 64°
2026-05-08 06:01 58.92047 -44.32691 39151 ft 484 kts 64°
2026-05-08 06:01 58.94777 -44.20790 39163 ft 483 kts 64°
2026-05-08 06:02 58.97477 -44.08960 39159 ft 480 kts 64°
2026-05-08 06:02 59.00169 -43.97096 39159 ft 480 kts 65°
2026-05-08 06:03 59.02828 -43.85308 39176 ft 480 kts 65°
2026-05-08 06:03 59.05496 -43.73420 39176 ft 480 kts 65°
2026-05-08 06:04 59.08152 -43.61519 39189 ft 478 kts 65°
2026-05-08 06:04 59.10787 -43.49638 39188 ft 478 kts 65°
2026-05-08 06:05 59.13409 -43.37760 39198 ft 478 kts 65°
2026-05-08 06:05 59.16024 -43.25830 39200 ft 478 kts 65°
2026-05-08 06:06 59.18629 -43.13892 39211 ft 478 kts 65°
2026-05-08 06:06 59.21205 -43.02012 39211 ft 478 kts 65°
2026-05-08 06:07 59.23785 -42.90051 39219 ft 478 kts 65°
2026-05-08 06:07 59.26358 -42.78042 39219 ft 478 kts 65°
2026-05-08 06:08 59.28915 -42.66050 39220 ft 478 kts 66°
2026-05-08 06:08 59.31467 -42.54008 39221 ft 478 kts 66°
2026-05-08 06:09 59.34007 -42.41948 39219 ft 477 kts 66°
2026-05-08 06:09 59.36496 -42.30059 39216 ft 475 kts 66°
2026-05-08 06:10 59.39009 -42.17997 39225 ft 475 kts 66°
2026-05-08 06:10 59.41498 -42.05970 39233 ft 475 kts 66°
2026-05-08 06:11 59.43955 -41.94029 39235 ft 475 kts 66°
2026-05-08 06:11 59.46422 -41.81968 39243 ft 475 kts 66°
2026-05-08 06:12 59.48859 -41.69974 39234 ft 471 kts 66°
2026-05-08 06:12 59.51270 -41.58054 39245 ft 468 kts 66°
2026-05-08 06:13 59.53667 -41.46127 39237 ft 468 kts 66°
2026-05-08 06:13 59.56055 -41.34165 39253 ft 468 kts 66°
2026-05-08 06:14 59.58432 -41.22194 39249 ft 469 kts 66°
2026-05-08 06:14 59.60787 -41.10262 39270 ft 466 kts 67°
2026-05-08 06:15 59.63111 -40.98417 39266 ft 466 kts 67°
2026-05-08 06:15 59.65445 -40.86451 39284 ft 466 kts 67°
2026-05-08 06:16 59.67764 -40.74483 39283 ft 466 kts 67°
2026-05-08 06:16 59.70076 -40.62477 39291 ft 466 kts 67°
2026-05-08 06:17 59.73502 -40.44561 39292 ft 465 kts 68°
2026-05-08 06:17 59.75792 -40.32487 39292 ft 465 kts 68°
2026-05-08 06:18 59.78059 -40.20464 39295 ft 465 kts 68°
2026-05-08 06:18 59.80299 -40.08506 39296 ft 465 kts 68°
2026-05-08 06:19 59.82547 -39.96437 39304 ft 465 kts 68°
2026-05-08 06:19 59.84786 -39.84338 39308 ft 466 kts 68°
2026-05-08 06:20 59.86637 -39.74274 39308 ft 466 kts 68°
2026-05-08 06:20 59.88855 -39.62153 39308 ft 466 kts 68°
2026-05-08 06:21 59.91064 -39.49991 39309 ft 467 kts 68°
2026-05-08 06:21 59.93264 -39.37809 39318 ft 467 kts 68°
2026-05-08 06:22 59.95455 -39.25607 39318 ft 469 kts 68°
2026-05-08 06:22 59.97642 -39.13328 39333 ft 469 kts 68°
2026-05-08 06:23 59.99815 -39.01050 39329 ft 468 kts 68°
2026-05-08 06:23 60.01649 -38.88611 39332 ft 471 kts 74°
2026-05-08 06:24 60.03343 -38.75994 39339 ft 470 kts 70°
2026-05-08 06:24 60.05142 -38.63433 39349 ft 471 kts 72°
2026-05-08 06:25 60.06849 -38.50771 39328 ft 470 kts 71°
2026-05-08 06:25 60.08599 -38.38146 39341 ft 470 kts 72°
2026-05-08 06:26 60.10301 -38.25488 39340 ft 470 kts 72°
2026-05-08 06:26 60.12012 -38.12825 39339 ft 470 kts 72°
2026-05-08 06:27 60.13699 -38.00152 39346 ft 470 kts 72°
2026-05-08 06:27 60.15378 -37.87473 39348 ft 470 kts 72°
2026-05-08 06:28 60.17043 -37.74784 39360 ft 470 kts 72°
2026-05-08 06:28 60.18691 -37.62114 39359 ft 469 kts 72°
2026-05-08 06:29 60.20319 -37.49504 39363 ft 469 kts 72°
2026-05-08 06:29 60.21945 -37.36800 39363 ft 469 kts 72°
2026-05-08 06:30 60.23556 -37.24096 39371 ft 467 kts 72°
2026-05-08 06:30 60.25157 -37.11393 39368 ft 468 kts 73°
2026-05-08 06:31 60.26739 -36.98696 39382 ft 468 kts 73°
2026-05-08 06:31 60.28315 -36.85946 39381 ft 468 kts 73°
2026-05-08 06:32 60.29869 -36.73278 39377 ft 468 kts 73°
2026-05-08 06:32 60.31419 -36.60530 39382 ft 468 kts 73°
2026-05-08 06:33 60.32956 -36.47762 39383 ft 468 kts 73°
2026-05-08 06:33 60.34479 -36.35000 39379 ft 468 kts 73°
2026-05-08 06:34 60.35994 -36.22203 39388 ft 468 kts 73°
2026-05-08 06:34 60.37495 -36.09400 39387 ft 468 kts 73°
2026-05-08 06:35 60.38985 -35.96570 39388 ft 468 kts 73°
2026-05-08 06:35 60.40457 -35.83778 39389 ft 465 kts 73°
2026-05-08 06:36 60.41913 -35.71007 39391 ft 466 kts 73°
2026-05-08 06:36 60.43349 -35.58314 39399 ft 466 kts 73°
2026-05-08 06:37 60.44782 -35.45500 39396 ft 466 kts 73°
2026-05-08 06:37 60.46204 -35.32675 39397 ft 466 kts 73°
2026-05-08 06:38 60.47612 -35.19853 39410 ft 466 kts 73°
2026-05-08 06:38 60.49007 -35.07034 39402 ft 465 kts 73°
2026-05-08 06:39 60.50389 -34.94202 39405 ft 466 kts 74°
2026-05-08 06:39 60.51758 -34.81358 39408 ft 466 kts 74°
2026-05-08 06:40 60.53118 -34.68497 39406 ft 466 kts 74°
2026-05-08 06:40 60.54462 -34.55641 39406 ft 466 kts 74°
2026-05-08 06:41 60.55795 -34.42751 39410 ft 465 kts 74°
2026-05-08 06:41 60.57115 -34.29882 39410 ft 465 kts 74°
2026-05-08 06:42 60.58413 -34.17082 39410 ft 465 kts 74°
2026-05-08 06:42 60.59705 -34.04206 39412 ft 464 kts 74°
2026-05-08 06:43 60.60984 -33.91346 39414 ft 464 kts 74°
2026-05-08 06:43 60.62250 -33.78449 39420 ft 464 kts 75°
2026-05-08 06:44 60.63502 -33.65594 39419 ft 463 kts 75°
2026-05-08 06:44 60.64741 -33.52713 39418 ft 463 kts 75°
2026-05-08 06:45 60.65966 -33.39836 39418 ft 463 kts 75°
2026-05-08 06:45 60.67184 -33.26914 39418 ft 463 kts 75°
2026-05-08 06:46 60.68388 -33.13989 39419 ft 464 kts 75°
2026-05-08 06:46 60.69577 -33.01074 39421 ft 462 kts 75°
2026-05-08 06:47 60.70754 -32.88157 39420 ft 463 kts 75°
2026-05-08 06:47 60.71920 -32.75213 39421 ft 463 kts 75°
2026-05-08 06:48 60.73073 -32.62251 39430 ft 463 kts 75°
2026-05-08 06:48 60.74204 -32.49389 39421 ft 463 kts 76°
2026-05-08 06:49 60.75333 -32.36426 39441 ft 464 kts 75°
2026-05-08 06:49 60.76448 -32.23449 39432 ft 463 kts 76°
2026-05-08 06:50 60.77551 -32.10452 39432 ft 463 kts 76°
2026-05-08 06:50 60.78642 -31.97450 39433 ft 463 kts 76°
2026-05-08 06:51 60.79721 -31.84430 39434 ft 463 kts 76°
2026-05-08 06:51 60.80779 -31.71513 39436 ft 463 kts 76°
2026-05-08 06:52 60.81830 -31.58479 39434 ft 462 kts 76°
2026-05-08 06:52 60.82871 -31.45472 39432 ft 463 kts 76°
2026-05-08 06:53 60.83896 -31.32446 39434 ft 463 kts 76°
2026-05-08 06:53 60.84904 -31.19490 39434 ft 463 kts 76°
2026-05-08 06:54 60.85908 -31.06424 39432 ft 463 kts 76°
2026-05-08 06:54 60.86897 -30.93356 39452 ft 463 kts 76°
2026-05-08 06:55 60.87869 -30.80350 39426 ft 461 kts 76°
2026-05-08 06:55 60.88823 -30.67417 39427 ft 461 kts 76°
2026-05-08 06:56 60.89771 -30.54379 39427 ft 461 kts 76°
2026-05-08 06:56 60.90707 -30.41336 39427 ft 461 kts 77°
2026-05-08 06:57 60.91625 -30.28318 39432 ft 459 kts 76°
2026-05-08 06:57 60.92533 -30.15343 39438 ft 457 kts 76°
2026-05-08 06:58 60.93421 -30.02377 39429 ft 458 kts 76°
2026-05-08 06:58 60.94301 -29.89391 39429 ft 458 kts 77°
2026-05-08 06:59 60.95163 -29.76479 39429 ft 458 kts 77°
2026-05-08 06:59 60.96016 -29.63486 39431 ft 458 kts 77°
2026-05-08 07:00 60.96858 -29.50484 39430 ft 458 kts 77°
2026-05-08 07:00 60.97688 -29.37468 39432 ft 458 kts 77°
2026-05-08 07:01 60.98505 -29.24422 39425 ft 458 kts 77°
2026-05-08 07:01 60.99308 -29.11403 39425 ft 459 kts 77°
2026-05-08 07:02 61.00180 -28.98377 39431 ft 456 kts 73°
2026-05-08 07:02 61.01860 -28.85894 39431 ft 450 kts 66°
2026-05-08 07:03 61.03603 -28.73443 39422 ft 453 kts 71°
2026-05-08 07:03 61.05199 -28.60895 39422 ft 451 kts 68°
2026-05-08 07:04 61.06879 -28.48478 39423 ft 453 kts 70°
2026-05-08 07:04 61.08485 -28.35908 39424 ft 452 kts 69°
2026-05-08 07:05 61.10128 -28.23349 39421 ft 452 kts 69°
2026-05-08 07:05 61.11732 -28.10767 39454 ft 452 kts 69°
2026-05-08 07:06 61.13340 -27.98164 39414 ft 451 kts 69°
2026-05-08 07:06 61.14922 -27.85596 39410 ft 452 kts 69°
2026-05-08 07:07 61.16489 -27.73077 39406 ft 452 kts 69°
2026-05-08 07:07 61.18053 -27.60468 39404 ft 452 kts 69°
2026-05-08 07:08 61.19604 -27.47856 39411 ft 452 kts 69°
2026-05-08 07:08 61.20890 -27.37320 39404 ft 455 kts 69°
2026-05-08 07:09 61.22429 -27.24598 39407 ft 454 kts 69°
2026-05-08 07:09 61.23957 -27.11865 39402 ft 454 kts 70°
2026-05-08 07:10 61.25471 -26.99134 39400 ft 454 kts 70°
2026-05-08 07:10 61.26978 -26.86355 39395 ft 454 kts 70°
2026-05-08 07:11 61.28459 -26.73676 39421 ft 455 kts 70°
2026-05-08 07:11 61.29942 -26.60867 39393 ft 455 kts 70°
2026-05-08 07:12 61.31413 -26.48054 39391 ft 455 kts 70°
2026-05-08 07:12 61.32873 -26.35216 39391 ft 455 kts 70°